EW6892 Weather Reports


Display with metric or nautical units.
time (UTC)temp
F
wind
direction
speed
MPH
gust
MPH
rain 1hr
in
rain 24hr
in
rain mn
in
humidity
%
barometer
mb
20171217054521 30 0.0 0.0 0.00 0.00 0.00 84 1024.3
20171217053520 31 0.0 0.0 0.00 0.00 0.00 84 1024.4
20171217052522 31 0.0 0.0 0.00 0.00 0.00 84 1024.2
20171217051516 31 0.0 0.0 0.00 0.00 0.00 83 1024.1
20171217050521 31 0.0 0.0 0.00 0.00 0.00 82 1024.2
20171217045516 32 0.0 0.0 0.00 0.00 0.00 81 1024.1
20171217044523 32 0.0 0.0 0.00 0.00 0.00 81 1024.3
20171217043516 32 0.0 0.0 0.00 0.00 0.00 81 1024.1
20171217042521 32 0.0 0.0 0.00 0.00 0.00 80 1023.9
20171217041516 32 0.0 0.0 0.00 0.00 0.00 79 1023.9
20171217040522 33 0.0 0.0 0.00 0.00 0.00 79 1023.9
20171217035516 33 0.0 0.0 0.00 0.00 0.00 78 1023.9
20171217034521 33 0.0 0.0 0.00 0.00 0.00 77 1024.0
20171217033516 33 0.0 0.0 0.00 0.00 0.00 77 1023.9
20171217032401 34 0.0 0.0 0.00 0.00 0.00 77 1023.7
20171217031519 34 0.0 0.0 0.00 0.00 0.00 76 1023.6
20171217030519 35 0.0 0.0 0.00 0.00 0.00 76 1023.4
20171217025516 35 0.0 0.0 0.00 0.00 0.00 76 1023.2
20171217024520 35 0.0 0.0 0.00 0.00 0.00 75 1023.1
20171217023521 35 0.0 0.0 0.00 0.00 0.00 75 1022.9
20171217022520 35 0.0 0.0 0.00 0.00 0.00 74 1023.0
20171217021520 36 0.0 0.0 0.00 0.00 0.00 73 1023.2
20171217020518 36 0.0 0.0 0.00 0.00 0.00 73 1023.2
20171217015521 37 0.0 0.0 0.00 0.00 0.00 74 1023.2
20171217014517 37 0.0 0.0 0.00 0.00 0.00 76 1023.3
20171217013516 38 0.0 0.0 0.00 0.00 0.00 75 1023.4
20171217012519 39 0.0 0.0 0.00 0.00 0.00 74 1023.5
20171217011516 40 0.0 0.0 0.00 0.00 0.00 72 1023.5
20171217010516 40 0.0 0.0 0.00 0.00 0.00 70 1023.6
20171217005519 41 0.0 0.0 0.00 0.00 0.00 68 1023.6
20171217004517 42 0.0 0.0 0.00 0.00 0.00 67 1023.4
20171217003517 43 0.0 0.0 0.00 0.00 0.00 65 1023.5
20171217002521 43 0.0 0.0 0.00 0.00 0.00 63 1023.5
20171217001517 44 0.0 0.0 0.00 0.00 0.00 62 1023.3
20171217000518 45 0.0 0.0 0.00 0.00 0.00 60 1023.5
20171216235517 45 0.0 1.0 0.00 0.00 0.00 59 1023.3
20171216234519 45 0.0 1.0 0.00 0.00 0.00 60 1023.2
20171216233519 44 135 0.0 1.0 0.00 0.00 0.00 60 1023.3
20171216232516 44 0.0 0.0 0.00 0.00 0.00 61 1023.3
20171216231517 44 0.0 0.0 0.00 0.00 0.00 59 1023.3
20171216230521 44 0.0 0.0 0.00 0.00 0.00 59 1023.3
20171216225518 45 135 0.0 2.0 0.00 0.00 0.00 57 1023.4
20171216224519 44 148 0.0 2.0 0.00 0.00 0.00 59 1023.5
20171216223518 44 0.0 1.0 0.00 0.00 0.00 61 1023.6
20171216222517 44 0.0 0.0 0.00 0.00 0.00 60 1023.8
20171216221519 44 217 0.0 1.0 0.00 0.00 0.00 61 1023.8
20171216220520 44 45 0.0 1.0 0.00 0.00 0.00 63 1023.8
20171216215518 44 0.0 0.0 0.00 0.00 0.00 65 1023.9
20171216214519 43 180 0.0 1.0 0.00 0.00 0.00 66 1023.9
20171216213518 43 0.0 0.0 0.00 0.00 0.00 67 1024.2
20171216212519 43 0.0 0.0 0.00 0.00 0.00 69 1024.4
20171216211517 44 0.0 1.0 0.00 0.00 0.00 70 1024.5
20171216210520 44 0.0 1.0 0.00 0.00 0.00 70 1024.6
20171216205517 44 0.0 0.0 0.00 0.00 0.00 71 1024.6
20171216204520 44 0.0 1.0 0.00 0.00 0.00 71 1025.2
20171216203517 44 0.0 1.0 0.00 0.00 0.00 72 1025.5
20171216202520 43 0 0.0 3.0 0.00 0.00 0.00 73 1026.0
20171216201517 42 0 0.0 2.0 0.00 0.00 0.00 80 1026.3
20171216200520 41 0 0.0 2.0 0.00 0.00 0.00 82 1026.1
20171216195517 40 130 0.0 2.0 0.00 0.00 0.00 86 1026.0
20171216194521 39 0 0.0 1.0 0.00 0.00 0.00 86 1026.0
20171216193518 39 0 0.0 2.0 0.00 0.00 0.00 87 1026.2
20171216192520 39 0 0.0 2.0 0.00 0.00 0.00 90 1026.4
20171216191517 38 0 0.0 2.0 0.00 0.00 0.00 96 1026.8
20171216190520 38 0.0 0.0 0.00 0.00 0.00 99 1026.8
20171216185517 37 0.0 0.0 0.00 0.00 0.00 97 1026.6
20171216184519 36 0.0 0.0 0.00 0.00 0.00 97 1026.6
20171216183517 35 180 0.0 1.0 0.00 0.00 0.00 97 1026.8
20171216182519 34 0.0 0.0 0.00 0.00 0.00 98 1026.7
20171216181517 33 0.0 0.0 0.00 0.00 0.00 99 1026.8
20171216180519 32 0.0 0.0 0.00 0.00 0.00 99 1026.7
20171216175518 31 0.0 0.0 0.00 0.00 0.00 99 1026.8
20171216174520 30 0.0 0.0 0.00 0.00 0.00 99 1026.7
20171216173518 30 0.0 0.0 0.00 0.00 0.00 99 1026.7
20171216172520 29 0.0 0.0 0.00 0.00 0.00 99 1026.6
20171216171519 29 0.0 0.0 0.00 0.00 0.00 99 1026.4
20171216170519 28 0.0 0.0 0.00 0.00 0.00 99 1026.3
20171216165518 28 0.0 0.0 0.00 0.00 0.00 99 1026.1
20171216164520 28 0.0 0.0 0.00 0.00 0.00 98 1025.9
20171216163518 28 0.0 0.0 0.00 0.00 0.00 96 1025.9
20171216162520 27 0.0 0.0 0.00 0.00 0.00 95 1025.7
20171216161517 27 0.0 0.0 0.00 0.00 0.00 95 1025.5
20171216160519 26 0.0 0.0 0.00 0.00 0.00 95 1025.6
20171216155517 26 0.0 0.0 0.00 0.00 0.00 95 1025.7
20171216154520 26 0.0 0.0 0.00 0.00 0.00 95 1025.4
20171216153517 26 0.0 0.0 0.00 0.00 0.00 95 1025.3
20171216152520 26 0.0 0.0 0.00 0.00 0.00 95 1025.6
20171216151517 26 0.0 0.0 0.00 0.00 0.00 95 1025.6
20171216150519 26 0.0 0.0 0.00 0.00 0.00 95 1025.7
20171216145517 27 0.0 0.0 0.00 0.00 0.00 95 1025.9
20171216144520 26 0.0 0.0 0.00 0.00 0.00 95 1026.0
20171216143517 27 0.0 0.0 0.00 0.00 0.00 95 1026.0
20171216142520 27 0.0 0.0 0.00 0.00 0.00 95 1026.1
20171216141517 27 0.0 0.0 0.00 0.00 0.00 95 1026.0
20171216140519 27 0.0 0.0 0.00 0.00 0.00 95 1026.0
20171216135518 27 0.0 0.0 0.00 0.00 0.00 95 1025.9
20171216134520 28 0.0 0.0 0.00 0.00 0.00 95 1025.9
20171216133517 28 0.0 0.0 0.00 0.00 0.00 95 1025.9
20171216132519 28 0.0 0.0 0.00 0.00 0.00 99 1025.8
20171216131517 28 0.0 0.0 0.00 0.00 0.00 99 1025.6
20171216130520 28 0.0 0.0 0.00 0.00 0.00 99 1025.5
20171216125517 28 0.0 0.0 0.00 0.00 0.00 99 1025.8
20171216124519 28 0.0 0.0 0.00 0.00 0.00 99 1025.8
20171216123517 28 0.0 0.0 0.00 0.00 0.00 99 1025.9
20171216122520 29 0.0 0.0 0.00 0.00 0.00 99 1025.9
20171216121518 29 0.0 0.0 0.00 0.00 0.00 99 1026.0
20171216120520 29 0.0 0.0 0.00 0.00 0.00 99 1026.1
20171216115517 29 0.0 0.0 0.00 0.00 0.00 99 1026.1
20171216114519 29 0.0 0.0 0.00 0.00 0.00 99 1026.3
20171216113517 29 0.0 0.0 0.00 0.00 0.00 99 1026.1
20171216112520 29 0.0 0.0 0.00 0.00 0.00 99 1026.2
20171216111517 29 0.0 0.0 0.00 0.00 0.00 99 1026.2
20171216110520 29 0.0 0.0 0.00 0.00 0.00 99 1026.2
20171216105518 29 0.0 0.0 0.00 0.00 0.00 99 1026.2
20171216104519 29 0.0 0.0 0.00 0.00 0.00 99 1026.2
20171216103517 29 0.0 0.0 0.00 0.00 0.00 99 1026.3
20171216102520 29 0.0 0.0 0.00 0.00 0.00 99 1026.4
20171216101517 29 0.0 0.0 0.00 0.00 0.00 99 1026.2
20171216100521 30 0.0 0.0 0.00 0.00 0.00 98 1026.1
20171216095517 31 0.0 0.0 0.00 0.00 0.00 99 1025.9
20171216094521 31 0.0 0.0 0.00 0.00 0.00 99 1026.1
20171216093517 31 0.0 0.0 0.00 0.00 0.00 99 1026.0
20171216092520 31 0.0 0.0 0.00 0.00 0.00 99 1025.9
20171216091517 31 0.0 0.0 0.00 0.00 0.00 99 1025.7
20171216090520 31 0.0 0.0 0.00 0.00 0.00 99 1025.4
20171216085518 31 0.0 0.0 0.00 0.00 0.00 99 1025.5
20171216084520 31 0.0 0.0 0.00 0.00 0.00 99 1025.5
20171216083517 32 0.0 0.0 0.00 0.00 0.00 98 1025.5
20171216082520 32 0.0 0.0 0.00 0.00 0.00 98 1025.6
20171216081517 32 0.0 0.0 0.00 0.00 0.00 98 1025.7
20171216080520 32 0.0 0.0 0.00 0.00 0.00 98 1025.7
20171216075517 32 0.0 0.0 0.00 0.00 0.00 98 1025.8
20171216074520 32 0.0 0.0 0.00 0.00 0.00 97 1025.7
20171216073518 31 0.0 0.0 0.00 0.00 0.00 97 1025.6
20171216072520 32 0.0 0.0 0.00 0.00 0.00 97 1025.5
20171216071517 32 0.0 0.0 0.00 0.00 0.00 97 1025.5
20171216070519 32 135 0.0 2.0 0.00 0.00 0.00 97 1025.5
20171216065518 32 180 0.0 1.0 0.00 0.00 0.00 97 1025.4
20171216064520 32 35 0.0 2.0 0.00 0.00 0.00 96 1025.3
20171216063517 32 0.0 0.0 0.00 0.00 0.00 96 1025.5
20171216062520 32 0.0 0.0 0.00 0.00 0.00 96 1025.2
20171216061517 33 0.0 0.0 0.00 0.00 0.00 96 1025.5
20171216060520 33 0.0 0.0 0.00 0.00 0.00 97 1025.6
20171216055517 34 0.0 0.0 0.00 0.00 0.00 96 1025.6